[[{"header":{"parameterUnit":"m.s-1","parameterCategory":1,"la1":30.2991,"la2":30.254,"lo1":-89.0895,"lo2":-89.0444,"dy":0.0017,"dx":0.0017,"nx":28,"ny":28,"refTime":"2026-03-05T03:00:00:Z","depth":0,"parameterNumber":2,"parameterNumberName":"U-component_of_WINDS"},"data":[0,0,0,0,0,0,0,0,0,0,0,0,0,0,0,0,0,0,0,0,0,0,0,0,0,0,0,0,0,0,0,0,0,0,0,0,0,0,0,0,0,0,0,0,0,0,0,0,0,0,0,0,0,0,0,0,0,0,-4.4841,-4.4841,0,-4.4852,-4.4852,-4.4852,-4.4792,-4.479,-4.4788,-4.4787,-4.4797,-4.4799,-4.4801,0,0,0,0,0,0,0,0,0,0,0,0,0,-4.477,-4.4771,-4.4841,-4.4841,-4.4842,-4.4852,-4.4852,-4.4852,-4.4792,-4.479,-4.4788,-4.4786,-4.4797,-4.4799,-4.4801,0,0,0,0,0,0,0,0,0,0,0,0,0,-4.4793,-4.4772,-4.4841,-4.4813,-4.481,-4.4852,-4.4852,-4.4853,-4.4793,-4.479,-4.4787,-4.4785,-4.4796,-4.4799,-4.4802,-4.4871,0,0,-4.481,-4.4812,0,0,0,0,0,0,0,0,-4.4791,-4.4795,-4.4817,-4.4815,-4.4812,-4.4818,-4.4831,-4.4859,-4.4793,-4.4799,-4.4787,-4.4784,-4.4806,-4.4808,-4.4816,-4.4872,-4.4872,-4.4811,-4.4812,-4.4813,-4.4814,0,0,0,0,0,0,0,-4.479,-4.4794,-4.4845,-4.4817,-4.4814,-4.48,-4.48,-4.4836,-4.4817,-4.4799,-4.4794,-4.4796,-4.4805,-4.4813,-4.4816,-4.4872,-4.481,-4.4813,-4.4815,-4.4816,-4.4988,-4.499,0,0,0,0,0,0,-4.4792,-4.4794,-4.4845,-4.4846,-4.4795,-4.4803,-4.4804,-4.4819,-4.4817,-4.4814,-4.4799,-4.4794,-4.481,-4.4812,-4.4816,-4.4897,-4.4813,-4.4816,-4.4818,-4.4985,-4.4988,-4.4991,0,0,0,0,0,0,-4.4791,-4.4797,-4.4845,-4.4819,-4.4824,-4.4807,-4.4825,-4.482,-4.4829,-4.4817,-4.4813,-4.4811,-4.4808,-4.4812,-4.4858,-4.4897,-4.4817,-4.482,-4.4982,-4.4986,-4.499,-4.5061,0,0,0,0,0,0,-4.4789,-4.4797,-4.4823,-4.482,-4.4825,-4.4886,-4.4827,-4.4822,-4.4834,-4.4828,-4.4827,-4.4825,-4.4806,-4.4854,-4.4861,-4.4899,-4.4822,-4.4978,-4.4983,-4.4989,-4.5055,-4.5067,-4.5077,0,0,0,0,0,-4.4787,-4.4841,-4.4824,-4.4831,-4.4857,-4.4889,-4.4892,-4.4869,-4.4837,-4.4863,-4.4856,-4.4825,-4.4893,-4.486,-4.4867,-4.4906,-4.4975,-4.4982,-4.4988,-4.505,-4.5065,-4.5077,0,0,0,0,0,0,-4.4848,-4.484,-4.4821,-4.4877,-4.4884,-4.4878,-4.491,-4.4886,-4.4902,-4.4895,-4.4867,-4.4867,-4.4919,-4.4918,-4.4881,-4.4975,-4.4928,-4.4936,-4.4973,-4.4987,-4.4998,-4.4996,-4.4825,0,0,0,0,0,-4.4868,-4.4895,-4.4887,-4.4937,-4.4942,-4.4926,-4.4939,-4.4922,-4.4928,-4.493,-4.4926,-4.4934,-4.4957,-4.4972,-4.4992,-4.5056,-4.5055,-4.5087,-4.5098,-4.5108,-4.5114,-4.5148,-4.5162,-4.5013,-4.5013,-4.5012,0,0,-4.491,-4.4909,-4.4927,-4.4949,-4.4953,-4.4981,-4.4928,-4.496,-4.4981,-4.4935,-4.4978,-4.4977,-4.4983,-4.5039,-4.5063,-4.5039,-4.5156,-4.5116,-4.5123,-4.5125,-4.5156,-4.5171,-4.5183,-4.5017,-4.5016,-4.5015,0,0,-4.4999,-4.5002,-4.5044,-4.505,-4.5057,-4.5046,-4.5057,-4.5056,-4.5053,-4.5097,-4.5063,-4.5089,-4.5128,-4.5135,-4.5143,-4.5241,-4.5212,-4.5249,-4.5306,-4.534,-4.5351,-4.5362,-4.5396,-4.5409,-4.5256,-4.5256,-4.5256,0,-4.5049,-4.5091,-4.5069,-4.5104,-4.5115,-4.5077,-4.5119,-4.5126,-4.5139,-4.5148,-4.5122,-4.5173,-4.5175,-4.5232,-4.5256,-4.5264,-4.5276,-4.5246,-4.5352,-4.5362,-4.5371,-4.5403,-4.5416,-4.526,-4.526,-4.5259,-4.5259,0,-4.5152,-4.5182,-4.5216,-4.523,-4.5246,-4.5285,-4.5269,-4.5288,-4.5271,-4.5264,-4.531,-4.5311,-4.5332,-4.5345,-4.5328,-4.54,-4.5385,-4.5357,-4.5309,-4.539,-4.542,-4.5432,-4.5266,-4.5265,-4.5263,-4.5262,0,0,-4.5276,-4.5282,-4.5294,-4.5301,-4.5308,-4.5331,-4.5369,-4.539,-4.5407,-4.5419,-4.545,-4.5487,-4.5461,-4.5471,-4.5455,-4.5485,-4.5562,-4.5452,-4.5452,-4.5472,-4.5642,-4.5662,-4.5677,-4.5545,-4.5548,-4.5549,-4.5641,0,-4.5363,-4.5428,-4.5411,-4.5476,-4.5504,-4.547,-4.5504,-4.5512,-4.5508,-4.5531,-4.5527,-4.5553,-4.5517,-4.5523,-4.5552,-4.5547,-4.5596,-4.554,-4.5573,-4.5575,-4.557,-4.5693,-4.5713,-4.58,-4.5653,-4.5655,-4.5656,0,-4.5471,-4.5489,-4.5557,-4.5562,-4.5573,-4.5603,-4.5622,-4.5645,-4.5655,-4.565,-4.5664,-4.5643,-4.5682,-4.5637,-4.569,-4.5653,-4.5666,-4.5667,-4.567,-4.5669,-4.5618,-4.5694,-4.5827,-4.5839,-4.5675,-4.5673,-4.5672,0,-4.5554,-4.5595,-4.5641,-4.5648,-4.5655,-4.5678,-4.5682,-4.5689,-4.5704,-4.5722,-4.5731,-4.5753,-4.5764,-4.5782,-4.5769,-4.5737,-4.5825,-4.5778,-4.5821,-4.5821,-4.5838,-4.5836,-4.5972,-4.5851,-4.5851,-4.585,-4.585,0,-4.5651,-4.5693,-4.5678,-4.5706,-4.5754,-4.5736,-4.5783,-4.5784,-4.5791,-4.5819,-4.5793,-4.582,-4.5801,-4.5827,-4.5817,-4.5863,-4.5869,-4.5866,-4.5862,-4.5866,-4.5867,-4.5872,-4.5865,-4.5854,-4.5853,-4.5852,-4.5852,0,-4.5749,-4.574,-4.5788,-4.5793,-4.5795,-4.583,-4.5833,-4.586,-4.5856,-4.5892,-4.5899,-4.5892,-4.5921,-4.5911,-4.5942,-4.5935,-4.5993,-4.5983,-4.599,-4.5986,-4.6029,-4.6025,-4.6172,-4.619,-4.6059,-4.606,-4.6061,0,-4.581,-4.5842,-4.5851,-4.5868,-4.5874,-4.5903,-4.5918,-4.5903,-4.5921,-4.5937,-4.5962,-4.5989,-4.601,-4.6059,-4.6056,-4.6081,-4.6069,-4.612,-4.6072,-4.6077,-4.6068,-4.6066,-4.6069,-4.6128,-4.6129,-4.6131,-4.6132,0,-4.5919,-4.5914,-4.5938,-4.5961,-4.5981,-4.5998,-4.6013,-4.6029,-4.6015,-4.6037,-4.6067,-4.6084,-4.6117,-4.6144,-4.6167,-4.6172,-4.6149,-4.6147,-4.6158,-4.6162,-4.6164,-4.6162,-4.6013,-4.6143,-4.6142,-4.6141,-4.614,-4.614,-4.5999,-4.6027,-4.6038,-4.6066,-4.6076,-4.6092,-4.6117,-4.6118,-4.6143,-4.6169,-4.6159,-4.6194,-4.6206,-4.6234,-4.6243,-4.627,-4.6251,-4.6267,-4.627,-4.6274,-4.6279,-4.6162,-4.6275,-4.6274,-4.6274,-4.6274,-4.6274,0,-4.6105,-4.6112,-4.6138,-4.6161,-4.6184,-4.6164,-4.618,-4.62,-4.6232,-4.6245,-4.6267,-4.6303,-4.6331,-4.6333,-4.6359,-4.6381,-4.6371,-4.6388,-4.6385,-4.6386,-4.6296,-4.6283,-4.6395,-4.6395,-4.6395,-4.6395,-4.6395,-4.6395,-4.6163,-4.6209,-4.6206,-4.6258,-4.6265,-4.6299,-4.631,-4.6325,-4.6336,-4.6378,-4.6401,-4.6403,-4.6412,-4.6439,-4.6464,-4.6464,-4.6474,-4.6494,-4.649,-4.6405,-4.6392,-4.6381,-4.6368,-4.6497,-4.6497,-4.6578,-4.6579,-4.6579]},{"header":{"parameterUnit":"m.s-1","parameterCategory":1,"la1":30.2991,"la2":30.254,"lo1":-89.0895,"lo2":-89.0444,"dy":0.0017,"dx":0.0017,"nx":28,"ny":28,"refTime":"2026-03-05T03:00:00:Z","depth":0,"parameterNumber":3,"parameterNumberName":"V-component_of_WINDS"},"data":[0,0,0,0,0,0,0,0,0,0,0,0,0,0,0,0,0,0,0,0,0,0,0,0,0,0,0,0,0,0,0,0,0,0,0,0,0,0,0,0,0,0,0,0,0,0,0,0,0,0,0,0,0,0,0,0,0,0,2.1748,2.1749,0,2.1789,2.179,2.179,2.1829,2.183,2.183,2.1831,2.187,2.187,2.1871,0,0,0,0,0,0,0,0,0,0,0,0,0,2.1703,2.1703,2.1748,2.1749,2.1749,2.1789,2.179,2.179,2.1829,2.183,2.183,2.1831,2.187,2.187,2.1871,0,0,0,0,0,0,0,0,0,0,0,0,0,2.1731,2.1704,2.1748,2.1773,2.1776,2.1789,2.179,2.179,2.1829,2.183,2.183,2.1831,2.1869,2.187,2.1871,2.1861,0,0,2.1874,2.1874,0,0,0,0,0,0,0,0,2.1729,2.1733,2.1769,2.1772,2.1775,2.1805,2.1788,2.1814,2.1829,2.1809,2.1831,2.1831,2.1847,2.185,2.1856,2.1863,2.1865,2.1874,2.1874,2.1875,2.1875,0,0,0,0,0,0,0,2.1727,2.1731,2.1764,2.177,2.1773,2.1783,2.1787,2.1793,2.1823,2.1811,2.1814,2.1818,2.1849,2.1855,2.1857,2.1865,2.1874,2.1875,2.1875,2.1875,2.187,2.1869,0,0,0,0,0,0,2.1722,2.1729,2.1763,2.1766,2.1754,2.1783,2.1788,2.1794,2.1823,2.1829,2.1817,2.182,2.1853,2.1856,2.1859,2.1852,2.1875,2.1875,2.1876,2.1871,2.187,2.1869,0,0,0,0,0,0,2.1721,2.1724,2.1761,2.1748,2.1754,2.1783,2.1789,2.1795,2.1801,2.1828,2.1834,2.1818,2.1854,2.1858,2.1861,2.1854,2.1876,2.1877,2.1871,2.187,2.187,2.1836,0,0,0,0,0,0,2.1719,2.1724,2.172,2.1748,2.1754,2.1763,2.1789,2.1795,2.1803,2.1806,2.1831,2.1835,2.1855,2.186,2.1862,2.1855,2.1877,2.1872,2.1871,2.187,2.1838,2.1834,2.183,0,0,0,0,0,2.1717,2.1708,2.172,2.1724,2.1751,2.1763,2.1766,2.179,2.1802,2.1799,2.1817,2.1835,2.1854,2.186,2.1863,2.1856,2.1873,2.1871,2.187,2.1839,2.1834,2.183,0,0,0,0,0,0,2.1676,2.1712,2.1725,2.1724,2.1741,2.1769,2.1766,2.1783,2.1795,2.1798,2.1826,2.1831,2.1832,2.1844,2.185,2.185,2.1866,2.1865,2.1842,2.1837,2.1834,2.1831,2.1878,0,0,0,0,0,2.1668,2.1675,2.1705,2.1701,2.1709,2.1736,2.1742,2.1759,2.1776,2.1783,2.1801,2.1817,2.1827,2.1833,2.1843,2.184,2.1847,2.1836,2.1833,2.183,2.1829,2.183,2.1827,2.1864,2.1864,2.1864,0,0,2.1649,2.1669,2.1671,2.1694,2.1708,2.1716,2.1741,2.1747,2.1753,2.1784,2.1789,2.1803,2.1823,2.1824,2.1825,2.1834,2.182,2.1828,2.1825,2.1826,2.1829,2.1825,2.1822,2.1863,2.1863,2.1864,0,0,2.1619,2.1634,2.1634,2.1649,2.1671,2.169,2.169,2.1717,2.1728,2.1734,2.1758,2.1766,2.1781,2.1795,2.1804,2.1783,2.18,2.1785,2.1766,2.1767,2.1765,2.1762,2.1756,2.1754,2.1784,2.1784,2.1784,0,2.1592,2.1605,2.1631,2.1637,2.1647,2.1677,2.1678,2.1691,2.1714,2.1721,2.1731,2.1754,2.1768,2.1774,2.177,2.1775,2.1777,2.1783,2.1763,2.1761,2.1759,2.1754,2.1751,2.1782,2.1782,2.1782,2.1783,0,2.1572,2.1581,2.1578,2.1603,2.1613,2.1616,2.1643,2.165,2.1667,2.1684,2.1692,2.1711,2.1727,2.173,2.1745,2.1739,2.1744,2.1758,2.1775,2.1753,2.1749,2.1747,2.1779,2.178,2.1781,2.1781,0,0,2.1516,2.1558,2.1557,2.157,2.1598,2.1605,2.161,2.1628,2.1634,2.165,2.1656,2.167,2.1684,2.1694,2.1712,2.1713,2.1698,2.1727,2.1728,2.1723,2.1694,2.1685,2.1682,2.1709,2.1709,2.1709,2.1693,0,2.1492,2.1504,2.153,2.1534,2.1544,2.1574,2.1578,2.1596,2.1614,2.1624,2.1643,2.1653,2.167,2.1677,2.1679,2.1699,2.1693,2.17,2.1716,2.1716,2.1711,2.1679,2.1668,2.1653,2.1692,2.1691,2.1691,0,2.1465,2.1482,2.1488,2.1519,2.1524,2.1527,2.1547,2.1556,2.1578,2.1591,2.1604,2.1624,2.1632,2.1648,2.1659,2.1664,2.1672,2.1683,2.1683,2.1686,2.1703,2.1683,2.1648,2.1646,2.1688,2.1689,2.1689,0,2.1426,2.145,2.1458,2.1467,2.1503,2.1505,2.152,2.1543,2.1552,2.1569,2.1576,2.1593,2.1603,2.1615,2.164,2.1649,2.165,2.1667,2.1661,2.1661,2.1661,2.166,2.1628,2.1664,2.1664,2.1664,2.1664,0,2.1397,2.14,2.1441,2.1446,2.145,2.148,2.1484,2.1501,2.1521,2.153,2.1556,2.1564,2.1595,2.1607,2.1626,2.1634,2.1637,2.1648,2.1654,2.1647,2.1646,2.1653,2.1655,2.1663,2.1663,2.1663,2.1663,0,2.1354,2.1382,2.1392,2.1426,2.1435,2.1437,2.1466,2.1472,2.1491,2.1502,2.1507,2.1537,2.1553,2.1579,2.16,2.1613,2.1618,2.1626,2.1611,2.1615,2.1609,2.1609,2.158,2.1579,2.1614,2.1613,2.1613,0,2.1335,2.1338,2.1373,2.1382,2.1396,2.1409,2.1421,2.145,2.1461,2.1488,2.1491,2.1508,2.1524,2.1547,2.1571,2.1588,2.1598,2.1587,2.16,2.1594,2.16,2.16,2.1601,2.1583,2.1583,2.1582,2.1582,0,2.1297,2.1312,2.1327,2.1349,2.1362,2.1379,2.1398,2.1403,2.1438,2.1448,2.1465,2.1478,2.1502,2.1519,2.1541,2.1556,2.1575,2.1578,2.1578,2.1571,2.1563,2.1569,2.1604,2.1578,2.1579,2.1579,2.1579,2.1579,2.1267,2.1272,2.1299,2.1316,2.1334,2.1352,2.136,2.1382,2.1397,2.142,2.1437,2.1453,2.1477,2.1508,2.1523,2.1536,2.1544,2.1543,2.1544,2.1543,2.1542,2.1561,2.1539,2.154,2.154,2.154,2.154,0,2.1233,2.1252,2.1268,2.1295,2.1309,2.1327,2.135,2.136,2.1375,2.1396,2.1412,2.1433,2.145,2.1477,2.1497,2.1503,2.1512,2.1507,2.1507,2.1511,2.1532,2.1531,2.1499,2.1499,2.1499,2.1499,2.1499,2.1499,2.1217,2.1228,2.1246,2.1267,2.1286,2.1304,2.1315,2.1332,2.135,2.1372,2.1388,2.1406,2.1429,2.1452,2.147,2.1477,2.1484,2.1476,2.1486,2.1505,2.1509,2.1513,2.1512,2.1477,2.1477,2.1465,2.1464,2.1464]}]]